TIME,DELAY(SENSOR),PRES,OXYGEN,RAWTEMP,T(OPTODE),TCPHASE,FLUOR,BETA(BETA700),BETA(BETA412),BETA(BETA440),CDOM,C(CSC),ED(ED412.40),ED(ED444.00),ED(ED489.70),ED(ED554.30),LU(LU411.80),LU(LU443.40),LU(LU489.60),LU(LU554.10),COMP,TILTX,TILTY,CHECK
1337918273,5806,890.8800048828125000,43.8971710205078100,664.2946777343750000,4.4864830970764160,54.4732704162597660,52,101,89,79,82,15336,2147755968,2147422134,2148007094,2147872667,2147644205,2147058139,2148260809,2147198070,3552,4,14,45934
1337921869,5807,963.2199707031250000,46.7080001831054700,669.9174194335938000,4.3009262084960940,54.1270790100097660,53,101,87,80,83,15312,2147757056,2147420580,2148005888,2147874212,2147644004,2147055442,2148262336,2147201965,3100,4,14,37943
1337925469,5809,982.9099731445312000,47.6124305725097660,671.7028808593750000,4.2419261932373050,54.0216903686523440,53,101,92,78,84,15316,2147758893,2147419620,2148004242,2147874569,2147643200,2147054646,2148260699,2147203437,3432,4,13,22292
1337929069,5807,987.1500244140625000,47.6201286315918000,671.6464843750000000,4.2437930107116700,54.0265083312988300,53,102,89,80,84,15314,2147760923,2147421385,2148004416,2147875766,2147640950,2147057938,2148262464,2147201636,229,4,13,13310
1337932669,5806,992.4699707031250000,47.3544006347656250,671.8297119140625000,4.2377381324768070,54.0601310729980500,53,98,91,78,82,15315,2147759186,2147423652,2148006848,2147873307,2147641993,2147053796,2148262500,2147203529,3398,4,13,15006
1337936269,5808,987.6799926757812000,48.0762710571289060,673.1353759765625000,4.1945691108703610,53.9758110046386700,53,99,89,79,84,15315,2147758326,2147418633,2148009965,2147876032,2147643072,2147060214,2148262299,2147202340,137,4,13,49920
1337939869,5808,1002.7299804687500000,46.8938598632812500,671.4691772460938000,4.2496509552001950,54.1260108947753900,53,99,91,81,83,15315,2147757760,2147421284,2148008329,2147878016,2147643748,2147054710,2148260818,2147199798,69,4,13,38157
1337943469,5808,1007.0900268554688000,46.8584403991699200,671.4655761718750000,4.2497692108154300,54.1315383911132800,52,100,90,81,82,15314,2147760438,2147422802,2148006939,2147877385,2147642029,2147050130,2148263040,2147198171,313,4,14,53837
1337947069,5806,1002.0599975585938000,46.7593002319335940,671.8626708984375000,4.2366452217102050,54.1460609436035160,52,98,90,79,84,15316,2147761828,2147419382,2148007552,2147874706,2147645613,2147063186,2148262400,2147203968,2921,4,14,50882
1337950669,5808,998.9199829101562000,46.8224601745605500,672.2255859375000000,4.2246479988098145,54.1402397155761700,54,99,90,79,83,15314,2147758208,2147422646,2148007972,2147872667,2147641728,2147062710,2148258651,2147199862,34,4,13,54832
1337954269,5807,999.5900268554688000,46.8633995056152340,672.6572875976562000,4.2103772163391110,54.1402397155761700,52,99,88,79,83,15315,2147761142,2147421275,2148006582,2147874816,2147643117,2147061174,2148258541,2147199789,267,4,13,16476
1337957869,5812,992.4600219726562000,47.0744094848632800,672.9003295898438000,4.2023410797119140,54.1149711608886700,52,100,89,79,82,15313,2147757037,2147420096,2148004955,2147875236,2147643849,2147056475,2148265636,2147200758,31,4,13,39712
1337961469,5809,997.5300292968750000,48.0728187561035160,674.2730712890625000,4.1569390296936035,53.9935188293457000,52,99,91,78,83,15311,2147761600,2147420909,2148007360,2147877275,2147646272,2147060973,2148261787,2147205394,413,4,13,8991
1337965069,5810,1002.9400024414062000,48.3607711791992200,674.2321777343750000,4.1582889556884770,53.9492301940918000,53,99,91,80,84,15311,2147757494,2147419584,2148004772,2147874139,2147643264,2147057554,2148265261,2147201243,197,4,13,42838
1337968669,5807,1005.3599853515625000,47.4710693359375000,673.3043823242188000,4.1889758110046390,54.0680809020996100,53,100,90,80,83,15311,2147757083,2147423094,2148007524,2147875821,2147642870,2147057718,2148264603,2147203254,156,4,13,30325
1337972269,5809,1004.0399780273438000,48.0062713623046900,673.6207275390625000,4.1785159111022950,53.9933586120605500,53,100,86,79,83,15308,2147757531,2147419675,2148006400,2147876726,2147642505,2147059501,2148260836,2147200978,3397,4,13,45125
1337975869,5811,1008.6099853515625000,48.1260681152343750,674.1735229492188000,4.1602311134338380,53.9866104125976560,52,103,86,80,83,15308,2147762340,2147423268,2148006089,2147874450,2147645412,2147054308,2148266166,2147200932,3519,4,13,38892
1337979469,5808,1011.1300048828125000,47.3596687316894500,672.5980834960938000,4.2123341560363770,54.0692787170410160,53,101,87,80,84,15309,2147758272,2147423844,2148004470,2147877220,2147643648,2147057929,2148262811,2147202066,3449,4,13,6493
1337983069,5807,1011.7199707031250000,46.9696197509765600,672.0170288085938000,4.2315440177917480,54.1214103698730500,52,100,88,80,83,15303,2147758061,2147426797,2148010194,2147876918,2147642102,2147061385,2148267556,2147204086,385,4,13,1724
1337986669,5805,1008.5000000000000000,45.9583511352539060,671.3764038085938000,4.2527198791503910,54.2575111389160160,53,98,88,80,83,15302,2147758564,2147420507,2148005650,2147876534,2147643904,2147061257,2148262134,2147205101,3426,4,13,16327
1337990269,5808,1015.4099731445312000,46.0100708007812500,671.5230712890625000,4.2478709220886230,54.2525291442871100,53,99,86,81,84,15306,2147756882,2147422921,2148006080,2147879862,2147644150,2147052772,2148259474,2147199899,6,4,13,41446
1337993869,5806,1012.7000122070312000,46.8571090698242200,672.4094848632812000,4.2185688018798830,54.1426506042480500,53,100,90,79,83,15305,2147758701,2147420224,2148005540,2147876736,2147640448,2147061577,2148260443,2147202477,520,4,13,4803
1337997469,5809,1011.2600097656250000,47.6343002319335940,672.7780761718750000,4.2063832283020020,54.0383110046386700,52,97,90,79,83,15304,2147762925,2147423680,2148002825,2147874962,2147640841,2147056530,2148260224,2147198491,5,4,13,47632
1338001069,5806,1007.7999877929688000,47.4678306579589840,672.9475708007812000,4.2007770538330080,54.0627098083496100,52,104,86,81,83,15306,2147762194,2147421696,2148007506,2147876745,2147643529,2147060278,2148255826,2147204498,7,4,13,64902
1338004669,5808,1006.1099853515625000,47.4081611633300800,674.1557006835938000,4.1608200073242190,54.0792808532714840,54,99,93,79,83,15305,2147757403,2147418669,2148005366,2147876169,2147643053,2147059172,2148262244,2147198802,3463,4,13,50837
1338008269,5810,1000.4500122070312000,47.6514091491699200,674.6262207031250000,4.1452541351318360,54.0564804077148440,53,99,88,80,83,15303,2147759945,2147421979,2148007332,2147875099,2147641536,2147060214,2148260617,2147201993,116,4,13,42351
1338011869,5810,1005.0800170898438000,47.7640113830566400,674.9135131835938000,4.1357479095458980,54.0440597534179700,52,98,89,79,84,15301,2147759963,2147419949,2148006272,2147872457,2147644370,2147058395,2148261083,2147203090,412,4,13,49270
1338015469,5806,1009.1699829101562000,48.1293296813964840,674.9414062500000000,4.1348252296447750,53.9882812500000000,53,101,88,80,83,15301,2147756306,2147423542,2148006281,2147874130,2147644699,2147054125,2148263067,2147198445,3575,4,13,18551
1338019069,5809,1007.1500244140625000,48.6750183105468750,675.2990112304688000,4.1229920387268070,53.9219512939453100,52,99,88,80,83,15296,2147758134,2147421924,2148006710,2147876480,2147643209,2147059099,2148263323,2147202907,513,4,13,4579
1338022669,5807,1008.4400024414062000,48.0306015014648440,673.9868164062500000,4.1664099693298340,53.9924087524414060,52,99,87,79,83,15297,2147761938,2147420123,2148009554,2147874660,2147644845,2147060726,2148254107,2147203666,250,4,13,20618
1338026269,5808,1004.4299926757812000,47.6694908142089840,674.7551269531250000,4.1409912109375000,54.0529708862304700,53,99,89,78,84,15297,2147762084,2147421485,2148007561,2147879058,2147642468,2147055936,2148256813,2147199698,14,4,13,53905
1338029869,5810,1007.9299926757812000,47.9581184387207000,673.6660156250000000,4.1770210266113280,54.0001792907714840,52,99,84,80,83,15294,2147761033,2147421778,2148006738,2147876096,2147642102,2147061129,2148254875,2147199204,3592,4,13,63313
1338033469,5809,1017.4000244140625000,47.9546394348144500,674.1776733398438000,4.1600952148437500,54.0075683593750000,53,103,89,79,84,15292,2147761654,2147422235,2148005010,2147876233,2147645019,2147057462,2148262180,2147201627,304,4,13,3729
1338037069,5809,1014.0300292968750000,46.3412818908691400,671.6428222656250000,4.2439160346984860,54.2057991027832000,52,100,87,78,83,15294,2147759177,2147420516,2148006893,2147876406,2147640018,2147062061,2148256649,2147206080,269,4,13,51076
1338040669,5806,1008.6199951171875000,46.3512687683105500,672.8209228515625000,4.2049670219421390,54.2145500183105500,52,100,93,79,84,15294,2147760246,2147420882,2148007241,2147876388,2147643529,2147055021,2148262034,2147200996,209,4,13,24525
1338044269,5809,1009.0999755859375000,47.2472496032714840,673.3303222656250000,4.1881241798400880,54.0941505432128900,53,104,88,80,83,15294,2147758253,2147419611,2148005010,2147876114,2147642971,2147057216,2148260635,2147198080,451,4,13,51073
1338047869,5809,1011.5900268554688000,46.9912605285644500,673.3212280273438000,4.1884250640869140,54.1358413696289060,53,97,86,80,83,15294,2147758180,2147420434,2148007158,2147876443,2147643840,2147055314,2148258322,2147198902,601,4,13,62966
1338051469,5809,1006.8900146484375000,47.1508293151855500,674.1826171875000000,4.1599311828613280,54.1202011108398440,53,98,89,81,83,15294,2147757476,2147421979,2148008786,2147876772,2147643428,2147060416,2148261101,2147202413,3512,4,14,32836
1338055069,5812,1011.8599853515625000,48.3941993713378900,674.6292724609375000,4.1451530456542970,53.9515113830566400,52,103,89,78,83,15295,2147760118,2147422464,2148004525,2147878445,2147643675,2147055716,2148258880,2147201097,409,4,13,57127
1338058669,5808,1006.9699707031250000,47.4671401977539060,673.9766235351562000,4.1667442321777340,54.0752906799316400,52,99,89,80,84,15284,2147761508,2147423488,2148005229,2147876196,2147640256,2147055478,2148258304,2147199140,190,4,13,17474
1338061855,5807,1015.1500244140625000,48.1414909362793000,674.6204833984375000,4.1454448699951170,53.9901809692382800,53,99,87,79,83,15323,2147758162,2147421933,2148008274,2147875712,2147644251,2147050221,2148263350,2147201188,3247,4,13,55688
